AAL2834 KMIA-TJSJ

Flight info

Callsign AAL2834
Flight time N/A
Altitude 33000
Route KLADA2 BITAC Y290 BEANO BEANO3
Aircraft A321/M-SDE3FGHIRWY/LB1

Departure

Time N/A
Airport Miami International Airport (KMIA)

Arrival

Time 2026-04-30 18:45
Airport Luis Munoz Marin International Airport (TJSJ)
Time Latitude Longitude Altitude Speed Heading
2026-04-30 17:39 22.57467 -72.98460 33025 ft 472 kts 119°
2026-04-30 17:42 22.41740 -72.67168 33006 ft 476 kts 120°
2026-04-30 17:43 22.33822 -72.51461 33012 ft 478 kts 120°
2026-04-30 17:44 22.24252 -72.32547 33009 ft 479 kts 120°
2026-04-30 17:47 22.09800 -72.04151 33007 ft 480 kts 120°
2026-04-30 17:48 21.98499 -71.82035 32993 ft 483 kts 121°
2026-04-30 17:50 21.85466 -71.56641 33005 ft 485 kts 121°
2026-04-30 17:52 21.75647 -71.37630 33004 ft 486 kts 121°
2026-04-30 17:54 21.60817 -71.08972 32996 ft 488 kts 122°
2026-04-30 17:56 21.46644 -70.85613 33006 ft 487 kts 127°
2026-04-30 17:58 21.35165 -70.67609 33007 ft 488 kts 127°
2026-04-30 18:00 21.19802 -70.43603 32993 ft 490 kts 128°
2026-04-30 18:01 21.10137 -70.28558 33004 ft 491 kts 128°
2026-04-30 18:02 20.98483 -70.10453 33012 ft 492 kts 128°
2026-04-30 18:04 20.86794 -69.92385 32991 ft 494 kts 129°
2026-04-30 18:06 20.71131 -69.68224 33007 ft 497 kts 129°
2026-04-30 18:08 20.57299 -69.47002 32985 ft 497 kts 129°
2026-04-30 18:10 20.41414 -69.22695 32973 ft 503 kts 131°
2026-04-30 18:11 20.27352 -69.01280 32976 ft 505 kts 131°
2026-04-30 18:13 20.17286 -68.85972 32976 ft 505 kts 131°
2026-04-30 18:14 20.07213 -68.70694 32977 ft 506 kts 131°
2026-04-30 18:15 19.95589 -68.51824 32980 ft 509 kts 129°
2026-04-30 18:16 19.87780 -68.39283 32983 ft 509 kts 130°
2026-04-30 18:17 19.83871 -68.32993 32648 ft 509 kts 129°
2026-04-30 18:17 19.79965 -68.26724 32153 ft 508 kts 129°
2026-04-30 18:18 19.78040 -68.23637 31905 ft 508 kts 129°
2026-04-30 18:18 19.76090 -68.20504 31673 ft 508 kts 129°
2026-04-30 18:18 19.74147 -68.17382 31406 ft 508 kts 129°
2026-04-30 18:18 19.72186 -68.14237 31168 ft 509 kts 129°
2026-04-30 18:19 19.70235 -68.11111 30931 ft 509 kts 128°
2026-04-30 18:19 19.68280 -68.07980 30707 ft 509 kts 128°
2026-04-30 18:19 19.66322 -68.04847 30477 ft 509 kts 128°
2026-04-30 18:19 19.64395 -68.01758 30252 ft 509 kts 128°
2026-04-30 18:20 19.62440 -67.98623 30016 ft 509 kts 128°
2026-04-30 18:20 19.60478 -67.95482 29757 ft 509 kts 128°
2026-04-30 18:20 19.58520 -67.92357 29480 ft 509 kts 128°
2026-04-30 18:20 19.56560 -67.89235 29205 ft 509 kts 128°
2026-04-30 18:21 19.54595 -67.86110 28956 ft 508 kts 128°
2026-04-30 18:21 19.52635 -67.82989 28699 ft 508 kts 128°
2026-04-30 18:21 19.50674 -67.79864 28434 ft 508 kts 128°
2026-04-30 18:21 19.48749 -67.76794 28182 ft 507 kts 128°
2026-04-30 18:22 19.46790 -67.73671 27929 ft 505 kts 128°
2026-04-30 18:22 19.42914 -67.67496 27413 ft 500 kts 128°
2026-04-30 18:22 19.40987 -67.64429 27176 ft 498 kts 128°
2026-04-30 18:23 19.39089 -67.61414 26931 ft 495 kts 128°
2026-04-30 18:23 19.37189 -67.58392 26696 ft 492 kts 128°
2026-04-30 18:23 19.35289 -67.55372 26454 ft 490 kts 128°
2026-04-30 18:23 19.33411 -67.52389 26190 ft 486 kts 128°
2026-04-30 18:24 19.29680 -67.46467 25720 ft 481 kts 128°
2026-04-30 18:24 19.27826 -67.43529 25486 ft 478 kts 128°
2026-04-30 18:24 19.25976 -67.40601 25256 ft 475 kts 128°
2026-04-30 18:25 19.24164 -67.37735 25029 ft 473 kts 128°
2026-04-30 18:25 19.20519 -67.31977 24578 ft 468 kts 128°
2026-04-30 18:25 19.18710 -67.29119 24194 ft 462 kts 128°
2026-04-30 18:26 19.15181 -67.23539 22956 ft 453 kts 128°
2026-04-30 18:26 19.13441 -67.20789 22421 ft 446 kts 128°
2026-04-30 18:26 19.11727 -67.18082 21884 ft 439 kts 128°
2026-04-30 18:27 19.08380 -67.12796 20873 ft 423 kts 128°
2026-04-30 18:27 19.06772 -67.10258 20412 ft 416 kts 128°
2026-04-30 18:28 19.03579 -67.05248 19506 ft 408 kts 128°
2026-04-30 18:28 19.01997 -67.02764 19064 ft 406 kts 127°
2026-04-30 18:28 18.98874 -66.97850 18235 ft 402 kts 127°
2026-04-30 18:29 18.97317 -66.95402 17761 ft 400 kts 127°
2026-04-30 18:29 18.92805 -66.88290 17009 ft 368 kts 127°
2026-04-30 18:30 18.90045 -66.83949 16511 ft 350 kts 127°
2026-04-30 18:30 18.87342 -66.79716 15698 ft 344 kts 127°
2026-04-30 18:31 18.86011 -66.77628 15296 ft 341 kts 127°
2026-04-30 18:31 18.83402 -66.73540 14699 ft 333 kts 126°
2026-04-30 18:32 18.80811 -66.69491 13849 ft 333 kts 126°
2026-04-30 18:32 18.79503 -66.67450 13260 ft 336 kts 126°
2026-04-30 18:32 18.76873 -66.63343 12114 ft 337 kts 126°
2026-04-30 18:33 18.75518 -66.61348 11544 ft 332 kts 131°
2026-04-30 18:33 18.72655 -66.57658 10790 ft 318 kts 131°
2026-04-30 18:33 18.71273 -66.55873 10505 ft 309 kts 131°
2026-04-30 18:34 18.69919 -66.54124 10230 ft 306 kts 131°
2026-04-30 18:34 18.67241 -66.50669 9662 ft 302 kts 131°
2026-04-30 18:34 18.65914 -66.48962 9357 ft 299 kts 131°
2026-04-30 18:35 18.64614 -66.47286 9060 ft 298 kts 131°
2026-04-30 18:35 18.63306 -66.45597 8763 ft 296 kts 131°
2026-04-30 18:35 18.62011 -66.43926 8469 ft 294 kts 131°
2026-04-30 18:36 18.59458 -66.40635 7891 ft 292 kts 131°
2026-04-30 18:36 18.58161 -66.38962 7603 ft 290 kts 130°
2026-04-30 18:36 18.55621 -66.35704 7027 ft 283 kts 129°
2026-04-30 18:37 18.54373 -66.34102 6750 ft 281 kts 129°
2026-04-30 18:37 18.53143 -66.32524 6475 ft 278 kts 129°
2026-04-30 18:37 18.51936 -66.30970 6183 ft 277 kts 129°
2026-04-30 18:37 18.50731 -66.29419 6005 ft 266 kts 129°
2026-04-30 18:38 18.49596 -66.27959 5996 ft 249 kts 129°
2026-04-30 18:38 18.48509 -66.26557 5666 ft 248 kts 129°
2026-04-30 18:38 18.47409 -66.25136 5169 ft 251 kts 129°
2026-04-30 18:38 18.46308 -66.23716 4697 ft 249 kts 129°
2026-04-30 18:39 18.45212 -66.22302 4193 ft 248 kts 129°
2026-04-30 18:39 18.44145 -66.20927 3713 ft 244 kts 129°
2026-04-30 18:39 18.43162 -66.19491 3230 ft 239 kts 111°
2026-04-30 18:39 18.42885 -66.17837 3024 ft 222 kts 92°
2026-04-30 18:40 18.42988 -66.16229 2823 ft 222 kts 76°
2026-04-30 18:40 18.43341 -66.14669 2459 ft 215 kts 84°
2026-04-30 18:40 18.43388 -66.13132 2159 ft 205 kts 90°
2026-04-30 18:40 18.43380 -66.11681 1904 ft 194 kts 90°
2026-04-30 18:41 18.43374 -66.10317 1678 ft 177 kts 89°
2026-04-30 18:41 18.43370 -66.09093 1446 ft 160 kts 88°
2026-04-30 18:41 18.43368 -66.07952 1249 ft 152 kts 88°
2026-04-30 18:41 18.43367 -66.06857 1059 ft 148 kts 90°
2026-04-30 18:42 18.43364 -66.05787 866 ft 144 kts 87°
2026-04-30 18:42 18.43360 -66.03643 489 ft 145 kts 86°
2026-04-30 18:42 18.43358 -66.02572 297 ft 146 kts 86°
2026-04-30 18:45 18.43452 -65.99933 19 ft 0 kts 311°
2026-04-30 18:45 18.43473 -65.99930 20 ft 8 kts 13°
2026-04-30 18:45 18.43554 -65.99929 19 ft 16 kts 322°
2026-04-30 18:46 18.43641 -65.99955 19 ft 10 kts 334°
2026-04-30 18:46 18.43696 -65.99991 21 ft 9 kts 334°
2026-04-30 18:46 18.43752 -66.00013 19 ft 8 kts 347°
2026-04-30 18:46 18.43788 -66.00030 19 ft 4 kts 314°
2026-04-30 18:47 18.43795 -66.00048 19 ft 3 kts 284°
2026-04-30 18:47 18.43790 -66.00078 20 ft 5 kts 254°
2026-04-30 18:47 18.43784 -66.00097 19 ft 1 kts 251°
2026-04-30 18:47 18.43784 -66.00098 19 ft 0 kts 251°
2026-04-30 18:48 18.43784 -66.00102 19 ft 1 kts 262°
2026-04-30 18:48 18.43787 -66.00119 19 ft 3 kts 292°
2026-04-30 18:48 18.43799 -66.00131 20 ft 4 kts 320°
2026-04-30 18:48 18.43815 -66.00150 19 ft 2 kts 320°
2026-04-30 18:49 18.43820 -66.00154 19 ft 2 kts 324°
2026-04-30 18:49 18.43823 -66.00156 19 ft 0 kts 325°